Buchel Airport ETSB

Flugplatz Daten

Name: Buchel Airport

Ident: ETSB

Lat: 50,17380142

Long: 7,063330173

Platzhöhe: 1568 ft

IataCode:

City:

Metar

2022/08/10 19:20
ETSB 101920Z AUTO 06007KT //// // ////// 23/05 Q1023 ///

Taf

2015/09/21 08:30
TAF TAF ETSB 210720Z 2108/2120 23004KT 9999 NSW FEW100 BY ETGL
Gewünschte Webcam nicht vorhanden? Dann fügen Sie eine hinzu. Sie wird dann so schnell wie möglich freigeschaltet
Url: Title: